Gwinn, MI

11:39 AM EDT on May 22, 2017 (GMT -0400)
Sawyer International

Weather History for KSAW - November, 2012

Change the Weather History Date:

Sunday, November 11, 2012

  Actual Average (KESC) Record (KESC)
Temperature  
Mean Temperature 48 °F -  
Max Temperature 57 °F 41 °F 62 °F (2010)
Min Temperature 39 °F 29 °F 8 °F (1986)
Degree Days  
Heating Degree Days 16    
Moisture  
Dew Point 47 °F    
Average Humidity 89    
Maximum Humidity 94    
Minimum Humidity 77    
Precipitation  
Precipitation 0.09 in - - ()
Sea Level Pressure  
Sea Level Pressure 29.68 in    
Wind  
Wind Speed 11 mph (South)    
Max Wind Speed 22 mph    
Max Gust Speed 24 mph    
Visibility 5 miles    
Events Rain , Thunderstorm    
Averages and records for this station are not official NWS values.
T = Trace of Precipitation, MM = Missing Value Source: NWS Daily Summary

Daily Weather History Graph

Daily Weather History Graph

Search for Another Location

Airport or City:

Trip Planner

Search our weather history database for the weather conditions in past years. The results will help you decide how hot, cold, wet, or windy it might be!

Date:

Astronomy

Nov. 11, 2012 Rise Set
Actual Time 7:46 AM EST 5:20 PM EST
Civil Twilight 7:13 AM EST 5:53 PM EST
Nautical Twilight 6:37 AM EST 6:29 PM EST
Astronomical Twilight 6:02 AM EST 7:04 PM EST
Moon 4:52 AM EST (11/11) 3:49 PM EST (11/11)
Length of Visible Light 10h 39m
Length of Day
9h 34m
Waning Crescent, 7% of the Moon is Illuminated
Nov 11
Waning Crescent
Nov 13
New
Nov 20
First Quarter
Nov 28
Full
Dec 6
Last Quarter

Hourly Weather History & Observations

Time (EST) Temp. Windchill Dew Point Humidity Pressure Visibility Wind Dir Wind Speed Gust Speed Precip Events Conditions
12:16 AM 47.7 °F - 45.3 °F 92% 29.76 in 1.8 mi South 8.1 mph - N/A Rain Light Rain
12:36 AM 47.7 °F - 45.5 °F 92% 29.75 in 1.8 mi South 9.2 mph - N/A Rain Light Rain
12:55 AM 48.2 °F - 45.7 °F 91% 29.74 in 1.5 mi South 6.9 mph - 0.01 in Rain Rain
1:16 AM 48.4 °F - 46.4 °F 93% 29.72 in 1.8 mi SSE 11.5 mph - N/A   Light Drizzle
1:36 AM 48.7 °F - 46.6 °F 92% 29.72 in 1.5 mi South 11.5 mph - N/A   Overcast
1:56 AM 49.1 °F - 46.9 °F 92% 29.72 in 1.2 mi South 11.5 mph - N/A Rain Light Rain
2:16 AM 49.5 °F - 47.5 °F 93% 29.72 in 1.5 mi SSE 12.7 mph - 0.01 in Rain Rain
2:35 AM 50.0 °F - 47.7 °F 92% 29.72 in 1.8 mi South 13.8 mph - 0.01 in Thunderstorm Overcast
2:56 AM 50.0 °F - 47.7 °F 92% 29.72 in 1.5 mi South 12.7 mph 18.4 mph 0.01 in Rain Light Rain
3:16 AM 50.2 °F - 48.0 °F 92% 29.73 in 2.0 mi South 15.0 mph 20.7 mph 0.01 in Rain , Thunderstorm Light Thunderstorms and Rain
3:35 AM 50.4 °F - 48.2 °F 92% 29.72 in 2.5 mi South 12.7 mph 21.9 mph 0.01 in Rain Rain
3:56 AM 50.9 °F - 48.4 °F 91% 29.71 in 4.0 mi South 11.5 mph 18.4 mph 0.02 in Rain Light Rain
4:16 AM 51.8 °F - 48.4 °F 88% 29.72 in 7.0 mi SSW 12.7 mph - N/A   Mostly Cloudy
4:35 AM 50.9 °F - 48.2 °F 90% 29.72 in 5.0 mi South 13.8 mph - N/A Rain Light Rain
4:56 AM 51.1 °F - 48.2 °F 90% 29.72 in 5.0 mi South 12.7 mph - N/A   Mostly Cloudy
5:15 AM 50.9 °F - 48.2 °F 90% 29.72 in 5.0 mi South 11.5 mph - N/A   Scattered Clouds
5:36 AM 51.1 °F - 48.2 °F 90% 29.71 in 5.0 mi South 11.5 mph - N/A   Mostly Cloudy
5:56 AM 50.9 °F - 47.8 °F 89% 29.72 in 5.0 mi South 12.7 mph - N/A   Mostly Cloudy
6:50 AM 50.0 °F - 48.2 °F 94% 29.71 in 5.0 mi South 11.5 mph 17.3 mph N/A   Scattered Clouds
7:50 AM 50.0 °F - 48.2 °F 94% 29.71 in 7.0 mi South 12.7 mph - N/A   Clear
9:50 AM 53.6 °F - 50.0 °F 88% 29.67 in 10.0 mi South 11.5 mph - N/A   Scattered Clouds
10:50 AM 53.6 °F - 48.2 °F 82% 29.68 in 10.0 mi South 21.9 mph - N/A   Scattered Clouds
11:55 AM 57.2 °F - 50.0 °F 77% 29.68 in 10.0 mi SSW 16.1 mph - N/A   Overcast
12:50 PM 57.2 °F - 50.0 °F 77% 29.67 in 10.0 mi South 12.7 mph 24.2 mph N/A   Overcast
1:50 PM 57.2 °F - 50.0 °F 77% 29.62 in 10.0 mi South 12.7 mph - N/A   Mostly Cloudy
2:50 PM 53.6 °F - 48.2 °F 82% 29.63 in 3.0 mi South 16.1 mph 24.2 mph N/A Rain Rain
3:50 PM 51.8 °F - 48.2 °F 88% 29.61 in 7.0 mi South 11.5 mph - N/A Rain Light Rain
4:50 PM 51.8 °F - 48.2 °F 88% 29.61 in 5.0 mi South 10.4 mph - N/A Rain Light Rain
5:50 PM 51.8 °F - 48.2 °F 88% 29.61 in 7.0 mi South 13.8 mph - N/A Rain Rain
6:50 PM 51.8 °F - 48.2 °F 88% 29.59 in 5.0 mi SSW 5.8 mph - N/A Rain Rain
7:50 PM 51.8 °F - 48.2 °F 88% 29.60 in 10.0 mi SSW 6.9 mph - N/A Rain Light Rain
8:55 PM 50.0 °F - 48.2 °F 94% 29.59 in 7.0 mi South 8.1 mph - N/A Rain Light Rain
9:50 PM 50.0 °F - 48.2 °F 94% 29.62 in 10.0 mi SSW 10.4 mph - N/A Rain Light Rain
10:16 PM 50.2 °F - 47.3 °F 90% 29.61 in 7.0 mi SSW 8.1 mph - 0.01 in Rain Rain
10:35 PM 50.0 °F - 47.3 °F 90% 29.62 in 10.0 mi SSW 10.4 mph - 0.01 in   Drizzle
10:56 PM 50.0 °F - 46.6 °F 88% 29.63 in 7.0 mi SW 18.4 mph - 0.02 in Rain Light Rain
11:16 PM 48.9 °F - 45.3 °F 87% 29.64 in 4.0 mi SW 15.0 mph 23.0 mph 0.01 in Rain Rain
11:36 PM 40.6 °F 34.3 °F 36.9 °F 86% 29.65 in 4.0 mi WNW 10.4 mph - 0.03 in Rain Light Rain
11:56 PM 39.2 °F 32.5 °F 37.4 °F 93% 29.69 in 7.0 mi West 10.4 mph - N/A Rain Light Rain